Terminal Aerodrome Forecast
Issued by NWS

Home | Current Version | Previous Version | Text Only | Print | Product List | Glossary On
Versions: 1 2 3 4 5 6 7 8 9 10 11 12 13 14 15 16 17
000
FTUS46 KPQR 252241 AAC
TAFONP
TAF AMD
KONP 252241Z 2523/2618 19020G25KT 2SM RA BR BKN009 OVC012
     FM260300 20015G25KT 5SM -SHRA BKN008 OVC015
     FM261000 21008KT P6SM -RA SCT015 OVC025=

USA.gov is the U.S. government's official web portal to all federal, state and local government web resources and services.